Location: S�tio Afonso Gruber
(26.1760°S, 49.5250°W)
Time: 09:27:08
(UTC+00:00)

Cosmos 1844 Rocket - Pass Details

Date: 01 October 2020
Orbit: 823 x 846 km, 71.0° (Epoch: 22 October)

Event Time Altitude Azimuth Distance (km) Brightness Sun altitude
Rises 08:12:01 0° 344° (NNW) 3,388 5.6 -10.9°
Reaches altitude 10° 08:14:27 10° 344° (NNW) 2,459 4.9 -10.4°
Maximum altitude 08:20:06 86° 71° (ENE) 855 2.8 -9.1°
Drops below altitude 10° 08:25:49 10° 160° (SSE) 2,477 5.5 -7.8°
Sets 08:28:16 0° 160° (SSE) 3,415 6.3 -7.3°
